User: anonymous   Login
Location: Ostrava
(49.8330°N, 18.2830°E)
Time: 13:25:22
(UTC+02:00)
Language:

NOAA 19 - Orbit

View from above orbital plane
View from above orbital plane
View from above satellite
View from above satellite

Ground track
Ground track

The orbit data is extracted from the following two-line orbital elements,

1 33591U 09005A   16237.46388281  .00000119  00000-0  89597-4 0  9997
2 33591  99.0463 194.8187 0014672  30.6336 329.5689 14.12099594388772
Epoch (UTC): 24 August 2016 11:07:59
Eccentricity: 0.0014672
inclination: 99.0463°
perigee height: 841 km
apogee height: 863 km
right ascension of ascending node: 194.8187°
argument of perigee: 30.6336°
revolutions per day: 14.12099594
mean anomaly at epoch: 329.5689°
orbit number at epoch: 38877

The dashed part of the orbit path shows where the satellite is in the earth's shadow,  

DLR